Location: Unspecified
(0.0000°N, 0.0000°E)
Time: 19:03:58
(UTC+00:00)

Vanguard 1 Rocket - Pass Details

Date: 23 November 2019
Orbit: 650 x 4226 km, 34.3° (Epoch: 05 December)

Event Time Altitude Azimuth Distance (km) Brightness Sun altitude
Rises 19:19:06 0° 225° (SW) 8,425 13.5 -21.6°
Reaches altitude 10° 19:26:08 10° 219° (SW) 7,180 12.8 -23.3°
Maximum altitude 19:46:46 41° 155° (SSE) 3,701 10.3 -28.0°
Enters shadow 19:53:13 30° 110° (ESE) 3,603 10.0 -29.5°
